Flag for Guadeloupe Weather past 2 weeks in Basse-Terre, Guadeloupe

Now
82 °F

Passing clouds.


Feels Like: 86 °F
Forecast: 77 / 82 °F
Wind: 9 mph from East

Location: Le Raizet - Guadeloupe

Current Time: Jul 28, 2014 at 8:32:12 AM

Latest Report: Jul 28, 2014 at 8:00 AM


Visibility: N/A

Pressure: 30.07 "Hg

Humidity: 66%

Dew point: 70 °F

Location of Basse-TerreLocation

Historic Weather in Basse-Terre — Graph

°F

Basse-Terre temperature yesterday

Maximum temperature yesterday: 88 °F (at 11:30 AM)
Minimum temperature yesterday: 77 °F (at 5:30 AM)
Average temperature yesterday: 82 °F

Past Weeks' High & Low Weather Summary

 TemperatureHumidityPressure
High90 °F (Jul 13, 1:00 PM)94% (Jul 19, 6:30 AM)30.12 "Hg (Jul 19, 6:30 AM)
Low73 °F (Jul 18, 6:30 AM)46% (Jul 16, 1:38 PM)29.95 "Hg (Jul 24, 4:30 AM)
Average82 °F72%30.05 "Hg
* Reported Jul 13 7:00 AM — Jul 28 7:30 AM, Basse-Terre, Weather by CustomWeather, © 2014

Note: Actual official high and low records may vary slightly from our data, if they occured in-between our weather recording intervals... More about our weather records

Advertising

Basse-Terre weather history for previous 24 hours

 ConditionsComfort  
Time TempWeatherWind HumidityBarometerVisibility
7:30 AM
Jul 28
82 °FPassing clouds.7 mph66%30.07 "HgN/A
6:30 AM77 °FClear.6 mph79%30.07 "HgN/A
6:00 AM77 °FClear.7 mph79%30.04 "HgN/A
5:30 AM73 °FClear.No wind89%30.04 "HgN/A
5:00 AM73 °FPassing clouds.No wind89%30.04 "HgN/A
4:30 AM75 °FClear.No wind83%30.04 "HgN/A
4:00 AM75 °FPassing clouds.No wind89%30.04 "HgN/A
3:30 AM75 °FClear.2 mph83%30.04 "HgN/A
3:00 AM75 °FClear.3 mph83%30.04 "HgN/A
2:30 AM77 °FClear.5 mph83%30.04 "HgN/A
2:00 AM77 °FClear.6 mph83%30.04 "HgN/A
1:30 AM77 °FClear.2 mph83%30.04 "HgN/A
1:00 AM77 °FPassing clouds.3 mph83%30.07 "HgN/A
12:30 AM77 °FClear.5 mph83%30.07 "HgN/A
12:00 AM77 °FClear.6 mph83%30.07 "HgN/A
11:30 PM
Jul 27
79 °FPassing clouds.5 mph79%30.09 "HgN/A
10:30 PM79 °FClear.7 mph79%30.09 "HgN/A
10:00 PM81 °FPassing clouds.9 mph74%30.09 "HgN/A
9:30 PM81 °FClear.7 mph74%30.09 "HgN/A
9:00 PM81 °FClear.5 mph74%30.09 "HgN/A
8:30 PM81 °FClear.7 mph74%30.07 "HgN/A
8:00 PM81 °FPassing clouds.7 mph74%30.07 "HgN/A
7:30 PM81 °FPassing clouds.6 mph74%30.07 "HgN/A
7:00 PM82 °FPartly cloudy.8 mph70%30.04 "HgN/A
6:30 PM82 °FBroken clouds.9 mph70%30.04 "HgN/A
6:06 PM82 °FBroken clouds.9 mph70%30.04 "HgN/A
5:46 PM84 °FBroken clouds.9 mph62%30.04 "HgN/A
5:00 PM84 °FBroken clouds.12 mph62%30.01 "HgN/A
4:00 PM86 °FBroken clouds.12 mph55%30.01 "HgN/A
3:00 PM88 °FBroken clouds.12 mph52%30.01 "HgN/A
2:30 PM86 °FBroken clouds.14 mph59%30.01 "HgN/A
2:00 PM86 °FBroken clouds.12 mph59%30.01 "HgN/A
1:30 PM88 °FBroken clouds.13 mph55%30.04 "HgN/A
1:09 PM88 °FBroken clouds.13 mph55%30.04 "HgN/A
12:00 PM88 °FBroken clouds.14 mph59%30.04 "HgN/A
11:30 AM88 °FBroken clouds.13 mph55%30.04 "HgN/A
11:00 AM84 °FSprinkles. Broken clouds.12 mph70%30.07 "HgN/A
10:37 AM86 °FBroken clouds.12 mph62%30.07 "HgN/A
10:00 AM86 °FBroken clouds.9 mph62%30.07 "HgN/A
9:30 AM86 °FBroken clouds.10 mph62%30.07 "HgN/A
9:00 AM84 °FPartly sunny.8 mph66%30.07 "HgN/A
8:30 AM82 °FPartly sunny.8 mph70%30.07 "HgN/A
8:00 AM82 °FPartly sunny.6 mph70%30.07 "HgN/A
Weather by CustomWeather, © 2014

See weather overviewHow to use our weather pages